カタログに戻る

GLOBALSTAR M066

運用中通信LEO
NORAD 32265·PAYLOAD·🇺🇸 United States

打ち上げ Oct 20, 2007 から Baikonur Cosmodrome

Loading…

次のパス (今後24時間)

TLE

最新Source: Space-Track

元期: Sep 14, 2026, 03:08 UTC

1 32265U 07048C   26257.13092222 -.00000129  00000-0 -28841-3 0  9990
2 32265  51.9579 162.5803 0004129 226.7706 280.6827 12.30390570871174

AllMySatでGLOBALSTAR M066をリアルタイム追跡

Download on the App Store